QPF
0.02 0.02 0.02 0.01 0.00 0.00 0.00 0.00 0.00 0.00 0.00 0.00 0.00 0.00 0.00 0.00 0.00 0.00 0.00 0.00 0.00 0.00 0.00 0.00 0.00 0.00 0.00 0.00 0.00 0.00 0.00 0.00 0.00 0.00 0.00 0.00 0.00 0.00 0.00 0.00 0.00 0.00 0.00 0.00
0.02 0.01 0.00 0.00 0.00 0.00 0.00 0.00 0.00 0.00 0.00 0.00 0.00 0.00 0.00 0.00 0.00 0.00 0.00 0.00 0.00 0.00 0.00 0.00 0.00 0.00 0.00 0.00 0.00 0.00 0.00 0.00 0.00 0.00 0.00 0.00 0.00 0.00 0.00 0.00 0.00 0.01 0.01 0.01
0.01 0.00 0.00 0.00 0.00 0.00 0.01 0.00 0.00 0.00 0.00 0.00 0.00 0.00 0.00 0.00 0.00 0.00 0.00 0.00 0.00 0.00 0.00 0.00 0.00 0.00 0.00 0.00 0.00 0.00 0.00 0.00 0.00 0.00 0.00 0.00 0.00 0.00 0.00 0.00 0.00 0.01 0.01 0.01
0.01 0.01 0.00 0.00 0.00 0.00 0.00 0.00 0.00 0.01 0.01 0.00 0.00 0.00 0.00 0.00 0.00 0.00 0.00 0.00 0.00 0.00 0.00 0.00 0.00 0.00 0.00 0.00 0.00 0.00 0.00 0.00 0.00 0.00 0.00 0.00 0.00 0.00 0.00 0.00 0.00 0.01 0.01 0.01
0.01 0.01 0.01 0.01 0.00 0.00 0.00 0.00 0.01 0.02 0.02 0.02 0.00 0.00 0.00 0.00 0.00 0.00 0.00 0.00 0.00 0.00 0.00 0.00 0.00 0.00 0.00 0.00 0.00 0.00 0.00 0.00 0.00 0.00 0.00 0.00 0.00 0.00 0.00 0.00 0.01 0.01 0.01 0.01
0.00 0.00 0.01 0.00 0.00 0.00 0.00 0.01 0.01 0.01 0.02 0.01 0.00 0.00 0.00 0.00 0.00 0.00 0.00 0.00 0.00 0.00 0.00 0.00 0.00 0.00 0.00 0.00 0.00 0.00 0.00 0.00 0.00 0.00 0.00 0.00 0.00 0.00 0.00 0.00 0.01 0.01 0.01 0.01
0.00 0.00 0.00 0.00 0.00 0.01 0.00 0.00 0.01 0.01 0.01 0.00 0.00 0.00 0.00 0.00 0.00 0.00 0.00 0.00 0.00 0.00 0.00 0.00 0.00 0.00 0.00 0.00 0.00 0.00 0.00 0.00 0.00 0.00 0.00 0.00 0.00 0.00 0.00 0.00 0.01 0.01 0.01 0.01
0.00 0.00 0.00 0.00 0.00 0.01 0.00 0.00 0.00 0.00 0.00 0.00 0.00 0.00 0.00 0.00 0.00 0.00 0.00 0.00 0.00 0.00 0.00 0.00 0.00 0.00 0.00 0.00 0.00 0.00 0.00 0.00 0.00 0.00 0.00 0.00 0.00 0.00 0.00 0.00 0.00 0.01 0.01 0.01
0.00 0.00 0.00 0.00 0.00 0.00 0.00 0.00 0.00 0.00 0.00 0.00 0.00 0.00 0.00 0.00 0.00 0.00 0.00 0.00 0.00 0.00 0.00 0.00 0.00 0.00 0.00 0.00 0.00 0.00 0.00 0.00 0.00 0.00 0.00 0.00 0.00 0.00 0.00 0.00 0.00 0.00 0.00 0.00
0.00 0.00 0.00 0.00 0.00 0.00 0.00 0.00 0.00 0.00 0.00 0.00 0.00 0.00 0.00 0.00 0.00 0.00 0.00 0.00 0.00 0.00 0.00 0.00 0.00 0.00 0.00 0.00 0.00 0.00 0.00 0.00 0.00 0.00 0.00 0.00 0.00 0.00 0.00 0.00 0.00 0.00 0.00 0.00
0.00 0.00 0.00 0.00 0.00 0.00 0.00 0.00 0.00 0.00 0.00 0.00 0.00 0.00 0.00 0.00 0.00 0.00 0.00 0.00 0.00 0.00 0.00 0.00 0.00 0.00 0.00 0.00 0.00 0.00 0.00 0.00 0.00 0.00 0.00 0.00 0.00 0.00 0.00 0.00 0.00 0.00 0.00 0.00
0.00 0.00 0.00 0.00 0.00 0.00 0.00 0.00 0.00 0.00 0.00 0.00 0.00 0.00 0.00 0.00 0.00 0.00 0.00 0.00 0.00 0.00 0.00 0.00 0.00 0.00 0.00 0.00 0.00 0.00 0.00 0.00 0.00 0.00 0.00 0.00 0.00 0.00 0.00 0.00 0.00 0.00 0.00 0.00
0.00 0.00 0.00 0.00 0.00 0.00 0.00 0.00 0.00 0.00 0.00 0.00 0.00 0.00 0.00 0.00 0.00 0.00 0.00 0.00 0.00 0.00 0.00 0.00 0.00 0.00 0.00 0.00 0.00 0.00 0.00 0.00 0.00 0.00 0.00 0.00 0.00 0.00 0.00 0.00 0.00 0.00 0.00 0.00
0.00 0.00 0.00 0.00 0.00 0.00 0.00 0.00 0.00 0.00 0.00 0.00 0.00 0.00 0.00 0.00 0.00 0.00 0.00 0.00 0.00 0.00 0.00 0.00 0.00 0.00 0.00 0.00 0.00 0.00 0.00 0.00 0.00 0.00 0.00 0.00 0.00 0.00 0.00 0.00 0.00 0.00 0.00 0.00
0.00 0.00 0.00 0.00 0.00 0.00 0.00 0.00 0.00 0.00 0.00 0.00 0.00 0.00 0.00 0.00 0.00 0.00 0.00 0.00 0.00 0.00 0.00 0.00 0.00 0.00 0.00 0.00 0.00 0.00 0.00 0.00 0.00 0.00 0.00 0.00 0.00 0.00 0.00 0.00 0.00 0.00 0.00 0.00
0.00 0.00 0.00 0.00 0.00 0.00 0.00 0.00 0.00 0.00 0.00 0.00 0.00 0.00 0.00 0.00 0.00 0.00 0.00 0.00 0.00 0.00 0.00 0.00 0.00 0.00 0.00 0.00 0.00 0.00 0.00 0.00 0.00 0.00 0.00 0.00 0.00 0.00 0.00 0.00 0.00 0.00 0.00 0.00
0.00 0.00 0.00 0.00 0.00 0.00 0.00 0.00 0.00 0.00 0.00 0.00 0.00 0.00 0.00 0.00 0.00 0.00 0.00 0.00 0.00 0.00 0.00 0.00 0.00 0.00 0.00 0.00 0.00 0.00 0.00 0.00 0.00 0.00 0.00 0.00 0.00 0.00 0.00 0.00 0.00 0.00 0.00 0.00
0.00 0.00 0.00 0.00 0.00 0.00 0.00 0.00 0.00 0.00 0.00 0.00 0.00 0.00 0.00 0.00 0.00 0.00 0.00 0.00 0.00 0.00 0.00 0.00 0.00 0.00 0.00 0.00 0.00 0.00 0.00 0.00 0.00 0.00 0.00 0.00 0.00 0.00 0.00 0.00 0.00 0.00 0.00 0.00
0.00 0.00 0.01 0.01 0.01 0.00 0.00 0.00 0.00 0.00 0.00 0.00 0.00 0.00 0.00 0.00 0.00 0.00 0.00 0.00 0.00 0.00 0.00 0.00 0.00 0.00 0.00 0.00 0.00 0.00 0.00 0.00 0.00 0.00 0.00 0.00 0.00 0.00 0.00 0.00 0.00 0.00 0.00 0.00
0.00 0.00 0.01 0.01 0.01 0.01 0.00 0.00 0.00 0.00 0.00 0.00 0.00 0.00 0.00 0.00 0.00 0.00 0.00 0.00 0.00 0.00 0.00 0.00 0.00 0.00 0.00 0.00 0.00 0.00 0.00 0.00 0.00 0.00 0.00 0.00 0.00 0.00 0.00 0.00 0.00 0.00 0.00 0.00
0.00 0.01 0.01 0.01 0.01 0.00 0.00 0.00 0.00 0.00 0.00 0.00 0.00 0.00 0.00 0.00 0.00 0.00 0.00 0.00 0.00 0.00 0.00 0.00 0.00 0.00 0.00 0.00 0.00 0.00 0.00 0.00 0.00 0.00 0.00 0.00 0.00 0.00 0.00 0.00 0.00 0.00 0.00 0.00
0.00 0.00 0.01 0.01 0.01 0.00 0.00 0.00 0.00 0.00 0.00 0.00 0.00 0.00 0.00 0.00 0.00 0.00 0.00 0.00 0.00 0.00 0.00 0.00 0.00 0.00 0.00 0.00 0.00 0.00 0.00 0.00 0.00 0.00 0.00 0.00 0.00 0.00 0.00 0.00 0.00 0.00 0.00 0.00
0.00 0.00 0.00 0.00 0.00 0.00 0.00 0.00 0.00 0.00 0.00 0.00 0.00 0.00 0.00 0.00 0.00 0.00 0.00 0.00 0.00 0.00 0.00 0.00 0.00 0.00 0.00 0.00 0.00 0.00 0.00 0.00 0.00 0.00 0.00 0.00 0.00 0.00 0.00 0.00 0.00 0.00 0.00 0.00
0.00 0.00 0.00 0.00 0.00 0.00 0.00 0.00 0.00 0.00 0.00 0.00 0.00 0.00 0.00 0.00 0.00 0.00 0.00 0.00 0.00 0.00 0.00 0.00 0.00 0.00 0.00 0.00 0.00 0.00 0.00 0.00 0.00 0.00 0.00 0.00 0.00 0.00 0.00 0.00 0.00 0.00 0.00 0.00
0.00 0.00 0.00 0.00 0.00 0.00 0.00 0.00 0.00 0.00 0.00 0.00 0.00 0.00 0.00 0.00 0.00 0.00 0.00 0.00 0.00 0.00 0.00 0.00 0.00 0.00 0.00 0.00 0.00 0.00 0.00 0.00 0.00 0.00 0.00 0.00 0.00 0.00 0.00 0.00 0.00 0.00 0.00 0.00
0.01 0.01 0.00 0.01 0.00 0.00 0.00 0.00 0.00 0.00 0.00 0.00 0.00 0.00 0.00 0.00 0.00 0.00 0.00 0.00 0.00 0.00 0.00 0.00 0.00 0.00 0.00 0.00 0.00 0.00 0.00 0.00 0.00 0.00 0.00 0.00 0.00 0.00 0.00 0.00 0.00 0.00 0.00 0.00
MSLP
1016.42 1017.04 1017.55 1017.98 1018.32 1018.59 1018.79 1018.92 1018.97 1018.94 1018.84 1018.65 1018.41 1018.13 1017.85 1017.58 1017.36 1017.20 1017.11 1017.08 1017.10 1017.16 1017.23 1017.31 1017.40 1017.51 1017.64 1017.83 1018.07 1018.39 1018.78 1019.24 1019.74 1020.26 1020.79 1021.29 1021.76 1022.17 1022.55 1022.88 1023.20 1023.51 1023.82 1024.15
1016.21 1016.76 1017.21 1017.59 1017.93 1018.24 1018.52 1018.75 1018.93 1019.02 1019.00 1018.87 1018.62 1018.29 1017.91 1017.52 1017.17 1016.89 1016.70 1016.60 1016.59 1016.64 1016.72 1016.81 1016.89 1016.98 1017.08 1017.21 1017.39 1017.66 1018.01 1018.46 1018.97 1019.54 1020.13 1020.70 1021.23 1021.71 1022.12 1022.47 1022.78 1023.07 1023.37 1023.68
1015.85 1016.33 1016.73 1017.10 1017.46 1017.84 1018.22 1018.59 1018.91 1019.12 1019.19 1019.10 1018.83 1018.42 1017.92 1017.37 1016.86 1016.42 1016.11 1015.93 1015.86 1015.90 1015.99 1016.10 1016.21 1016.30 1016.39 1016.50 1016.65 1016.88 1017.20 1017.64 1018.17 1018.76 1019.39 1020.02 1020.60 1021.12 1021.57 1021.94 1022.25 1022.54 1022.81 1023.10
1015.33 1015.76 1016.14 1016.52 1016.94 1017.42 1017.94 1018.46 1018.92 1019.26 1019.41 1019.33 1019.03 1018.52 1017.87 1017.14 1016.44 1015.83 1015.37 1015.09 1014.97 1014.98 1015.09 1015.24 1015.39 1015.52 1015.63 1015.74 1015.89 1016.10 1016.40 1016.82 1017.34 1017.94 1018.59 1019.25 1019.87 1020.42 1020.89 1021.28 1021.60 1021.89 1022.15 1022.43
1014.67 1015.08 1015.47 1015.89 1016.40 1017.00 1017.66 1018.34 1018.94 1019.39 1019.60 1019.54 1019.18 1018.56 1017.75 1016.84 1015.94 1015.15 1014.55 1014.15 1013.97 1013.97 1014.10 1014.30 1014.52 1014.71 1014.87 1015.02 1015.18 1015.38 1015.67 1016.06 1016.55 1017.13 1017.77 1018.42 1019.04 1019.61 1020.10 1020.51 1020.85 1021.15 1021.43 1021.71
1013.86 1014.27 1014.70 1015.20 1015.82 1016.55 1017.36 1018.18 1018.91 1019.45 1019.71 1019.63 1019.21 1018.48 1017.52 1016.44 1015.37 1014.43 1013.69 1013.20 1012.98 1012.98 1013.15 1013.41 1013.71 1013.98 1014.21 1014.41 1014.59 1014.79 1015.05 1015.40 1015.84 1016.37 1016.96 1017.58 1018.18 1018.74 1019.25 1019.68 1020.05 1020.38 1020.69 1021.00
1012.89 1013.34 1013.84 1014.44 1015.18 1016.04 1016.99 1017.93 1018.75 1019.35 1019.63 1019.54 1019.06 1018.23 1017.16 1015.95 1014.75 1013.69 1012.87 1012.33 1012.09 1012.11 1012.33 1012.67 1013.05 1013.41 1013.72 1013.97 1014.18 1014.37 1014.60 1014.89 1015.27 1015.72 1016.23 1016.79 1017.36 1017.90 1018.41 1018.87 1019.29 1019.67 1020.03 1020.39
1011.77 1012.29 1012.88 1013.60 1014.45 1015.43 1016.47 1017.49 1018.37 1019.00 1019.28 1019.16 1018.64 1017.76 1016.62 1015.34 1014.09 1012.99 1012.14 1011.60 1011.37 1011.44 1011.73 1012.15 1012.62 1013.07 1013.45 1013.74 1013.97 1014.16 1014.34 1014.57 1014.85 1015.21 1015.64 1016.12 1016.64 1017.16 1017.68 1018.17 1018.64 1019.09 1019.53 1019.96
1010.57 1011.18 1011.87 1012.69 1013.64 1014.70 1015.80 1016.85 1017.73 1018.35 1018.61 1018.46 1017.92 1017.03 1015.89 1014.63 1013.40 1012.34 1011.53 1011.05 1010.89 1011.03 1011.39 1011.89 1012.44 1012.95 1013.38 1013.72 1013.95 1014.12 1014.26 1014.41 1014.61 1014.88 1015.22 1015.63 1016.09 1016.59 1017.12 1017.65 1018.18 1018.70 1019.23 1019.75
1009.36 1010.07 1010.87 1011.78 1012.79 1013.88 1014.98 1015.99 1016.83 1017.39 1017.60 1017.44 1016.90 1016.05 1014.97 1013.81 1012.70 1011.75 1011.06 1010.69 1010.63 1010.86 1011.30 1011.87 1012.47 1013.03 1013.50 1013.85 1014.09 1014.23 1014.33 1014.42 1014.54 1014.73 1014.99 1015.34 1015.76 1016.24 1016.77 1017.34 1017.93 1018.54 1019.14 1019.75
1008.26 1009.08 1009.97 1010.93 1011.96 1013.02 1014.05 1014.97 1015.70 1016.17 1016.32 1016.13 1015.62 1014.85 1013.91 1012.92 1011.99 1011.22 1010.71 1010.48 1010.55 1010.87 1011.38 1012.00 1012.63 1013.21 1013.69 1014.05 1014.29 1014.42 1014.49 1014.54 1014.62 1014.75 1014.96 1015.26 1015.65 1016.13 1016.67 1017.27 1017.92 1018.58 1019.26 1019.93
1007.35 1008.27 1009.23 1010.22 1011.22 1012.19 1013.09 1013.86 1014.44 1014.78 1014.85 1014.64 1014.18 1013.53 1012.76 1011.97 1011.27 1010.73 1010.41 1010.36 1010.55 1010.96 1011.52 1012.16 1012.80 1013.38 1013.87 1014.23 1014.46 1014.60 1014.67 1014.72 1014.78 1014.90 1015.09 1015.37 1015.75 1016.22 1016.78 1017.41 1018.08 1018.79 1019.52 1020.24
1006.73 1007.72 1008.71 1009.68 1010.60 1011.43 1012.16 1012.73 1013.13 1013.31 1013.29 1013.05 1012.65 1012.13 1011.54 1010.99 1010.52 1010.21 1010.10 1010.21 1010.51 1010.99 1011.58 1012.22 1012.85 1013.43 1013.91 1014.27 1014.53 1014.70 1014.81 1014.89 1014.99 1015.13 1015.34 1015.63 1016.02 1016.49 1017.05 1017.69 1018.38 1019.10 1019.85 1020.60
1006.38 1007.43 1008.41 1009.31 1010.10 1010.76 1011.28 1011.63 1011.81 1011.84 1011.71 1011.46 1011.11 1010.71 1010.31 1009.97 1009.73 1009.63 1009.70 1009.94 1010.33 1010.85 1011.44 1012.07 1012.69 1013.25 1013.73 1014.13 1014.44 1014.67 1014.86 1015.02 1015.19 1015.40 1015.66 1015.98 1016.39 1016.88 1017.44 1018.07 1018.75 1019.47 1020.22 1020.96
1006.27 1007.33 1008.26 1009.06 1009.69 1010.14 1010.43 1010.55 1010.53 1010.40 1010.17 1009.89 1009.59 1009.30 1009.06 1008.90 1008.85 1008.93 1009.14 1009.48 1009.92 1010.45 1011.04 1011.65 1012.24 1012.81 1013.31 1013.76 1014.15 1014.48 1014.78 1015.07 1015.35 1015.65 1015.99 1016.37 1016.81 1017.32 1017.88 1018.49 1019.16 1019.86 1020.58 1021.31
1006.29 1007.31 1008.16 1008.81 1009.26 1009.50 1009.57 1009.47 1009.26 1008.99 1008.68 1008.38 1008.12 1007.92 1007.81 1007.80 1007.89 1008.09 1008.40 1008.79 1009.26 1009.79 1010.36 1010.94 1011.53 1012.11 1012.66 1013.19 1013.68 1014.15 1014.59 1015.02 1015.44 1015.86 1016.29 1016.75 1017.23 1017.76 1018.32 1018.92 1019.56 1020.23 1020.92 1021.62
1006.31 1007.24 1007.96 1008.46 1008.72 1008.77 1008.63 1008.35 1008.00 1007.61 1007.24 1006.94 1006.71 1006.59 1006.58 1006.67 1006.86 1007.15 1007.50 1007.92 1008.39 1008.91 1009.46 1010.03 1010.63 1011.24 1011.86 1012.48 1013.10 1013.71 1014.30 1014.88 1015.45 1015.99 1016.53 1017.06 1017.60 1018.15 1018.71 1019.31 1019.93 1020.58 1021.24 1021.92
1006.18 1006.99 1007.57 1007.90 1007.99 1007.86 1007.57 1007.17 1006.71 1006.27 1005.88 1005.59 1005.41 1005.35 1005.41 1005.58 1005.84 1006.16 1006.54 1006.97 1007.43 1007.93 1008.47 1009.05 1009.67 1010.33 1011.03 1011.75 1012.49 1013.23 1013.97 1014.68 1015.37 1016.03 1016.67 1017.27 1017.86 1018.45 1019.03 1019.63 1020.25 1020.89 1021.54 1022.20
1005.82 1006.48 1006.91 1007.09 1007.04 1006.79 1006.40 1005.92 1005.43 1004.98 1004.62 1004.37 1004.26 1004.27 1004.39 1004.61 1004.91 1005.26 1005.65 1006.08 1006.54 1007.04 1007.58 1008.18 1008.83 1009.55 1010.31 1011.12 1011.95 1012.80 1013.64 1014.46 1015.25 1015.99 1016.70 1017.37 1018.01 1018.63 1019.25 1019.87 1020.50 1021.15 1021.80 1022.46
1005.17 1005.69 1005.99 1006.05 1005.89 1005.58 1005.15 1004.67 1004.21 1003.81 1003.52 1003.36 1003.32 1003.41 1003.60 1003.87 1004.21 1004.58 1004.99 1005.43 1005.90 1006.40 1006.96 1007.58 1008.27 1009.02 1009.83 1010.69 1011.58 1012.49 1013.38 1014.25 1015.08 1015.88 1016.63 1017.35 1018.04 1018.70 1019.37 1020.02 1020.69 1021.35 1022.02 1022.69
1004.25 1004.65 1004.84 1004.82 1004.62 1004.30 1003.90 1003.49 1003.11 1002.82 1002.64 1002.59 1002.66 1002.83 1003.10 1003.44 1003.82 1004.23 1004.67 1005.13 1005.62 1006.15 1006.73 1007.37 1008.08 1008.86 1009.68 1010.55 1011.44 1012.34 1013.22 1014.09 1014.92 1015.72 1016.49 1017.23 1017.95 1018.67 1019.37 1020.08 1020.79 1021.49 1022.18 1022.86
1003.11 1003.42 1003.54 1003.50 1003.32 1003.05 1002.74 1002.44 1002.21 1002.06 1002.03 1002.11 1002.30 1002.59 1002.95 1003.35 1003.79 1004.25 1004.73 1005.23 1005.75 1006.31 1006.92 1007.59 1008.30 1009.06 1009.87 1010.69 1011.53 1012.37 1013.19 1013.99 1014.78 1015.54 1016.30 1017.05 1017.79 1018.55 1019.31 1020.07 1020.82 1021.56 1022.28 1022.97
1001.82 1002.08 1002.19 1002.17 1002.05 1001.89 1001.72 1001.58 1001.52 1001.55 1001.69 1001.93 1002.25 1002.65 1003.11 1003.59 1004.10 1004.62 1005.15 1005.69 1006.26 1006.86 1007.49 1008.16 1008.86 1009.59 1010.33 1011.08 1011.83 1012.56 1013.28 1013.98 1014.68 1015.39 1016.10 1016.84 1017.60 1018.39 1019.19 1020.00 1020.79 1021.57 1022.30 1022.99
1000.49 1000.73 1000.86 1000.90 1000.90 1000.87 1000.87 1000.92 1001.05 1001.27 1001.59 1001.98 1002.45 1002.96 1003.51 1004.08 1004.65 1005.23 1005.81 1006.40 1007.01 1007.64 1008.29 1008.95 1009.62 1010.30 1010.97 1011.61 1012.24 1012.85 1013.44 1014.04 1014.64 1015.27 1015.94 1016.66 1017.43 1018.23 1019.07 1019.91 1020.73 1021.53 1022.27 1022.94
999.19 999.44 999.63 999.77 999.90 1000.04 1000.22 1000.46 1000.79 1001.20 1001.68 1002.22 1002.81 1003.42 1004.05 1004.68 1005.31 1005.94 1006.57 1007.20 1007.83 1008.48 1009.13 1009.78 1010.42 1011.03 1011.62 1012.17 1012.69 1013.18 1013.65 1014.14 1014.66 1015.22 1015.85 1016.55 1017.31 1018.12 1018.97 1019.83 1020.66 1021.46 1022.19 1022.84
998.04 998.32 998.58 998.83 999.09 999.40 999.77 1000.20 1000.70 1001.27 1001.90 1002.56 1003.25 1003.94 1004.62 1005.30 1005.96 1006.61 1007.25 1007.90 1008.55 1009.20 1009.84 1010.47 1011.07 1011.64 1012.16 1012.63 1013.06 1013.47 1013.86 1014.28 1014.73 1015.25 1015.84 1016.52 1017.27 1018.08 1018.93 1019.78 1020.61 1021.38 1022.08 1022.70
Thickness
5579 5581 5590 5599 5603 5607 5606 5608 5613 5621 5631 5632 5634 5641 5655 5663 5662 5665 5669 5673 5679 5688 5696 5695 5696 5697 5696 5696 5695 5695 5693 5691 5688 5685 5682 5679 5678 5676 5673 5671 5669 5666 5664 5661
5565 5580 5596 5595 5595 5599 5599 5601 5606 5614 5621 5622 5626 5631 5645 5654 5660 5665 5670 5674 5679 5684 5688 5691 5693 5695 5697 5698 5697 5696 5695 5692 5690 5688 5685 5682 5680 5677 5675 5671 5669 5666 5663 5660
5575 5588 5589 5586 5585 5588 5591 5595 5599 5604 5609 5614 5617 5622 5638 5652 5657 5664 5668 5673 5678 5682 5688 5691 5692 5693 5696 5698 5699 5699 5697 5694 5691 5688 5684 5680 5677 5675 5672 5670 5667 5665 5662 5659
5567 5576 5581 5580 5582 5586 5586 5593 5594 5595 5594 5593 5603 5600 5629 5644 5653 5662 5667 5670 5675 5682 5687 5690 5692 5693 5696 5700 5700 5699 5697 5695 5692 5688 5684 5681 5679 5677 5675 5671 5667 5664 5661 5658
5561 5566 5574 5577 5586 5585 5585 5587 5586 5586 5584 5581 5587 5590 5619 5635 5644 5659 5668 5674 5680 5685 5688 5691 5694 5696 5697 5697 5696 5696 5695 5694 5691 5688 5685 5681 5679 5677 5672 5669 5665 5661 5658 5655
5558 5563 5572 5580 5582 5580 5576 5572 5567 5563 5562 5566 5585 5578 5608 5627 5648 5660 5670 5676 5681 5685 5686 5688 5691 5691 5692 5691 5691 5692 5691 5691 5690 5687 5684 5681 5678 5674 5669 5665 5662 5658 5655 5651
5542 5550 5562 5570 5564 5563 5568 5559 5547 5544 5543 5563 5578 5577 5614 5639 5650 5661 5671 5676 5680 5681 5682 5683 5684 5684 5685 5686 5687 5688 5688 5687 5686 5684 5682 5680 5677 5672 5668 5664 5659 5655 5650 5647
5538 5543 5556 5564 5569 5566 5567 5565 5553 5543 5543 5554 5564 5578 5625 5641 5649 5653 5658 5664 5668 5671 5673 5676 5678 5679 5679 5680 5680 5681 5683 5683 5681 5680 5679 5676 5672 5668 5665 5661 5656 5652 5647 5643
5554 5555 5559 5562 5571 5571 5558 5557 5563 5548 5535 5547 5556 5578 5609 5633 5639 5646 5651 5655 5661 5664 5666 5667 5668 5669 5669 5671 5672 5673 5674 5675 5674 5674 5672 5670 5667 5663 5660 5655 5651 5646 5641 5636
5562 5550 5548 5553 5558 5562 5565 5558 5544 5539 5535 5544 5567 5581 5607 5633 5638 5646 5651 5656 5661 5659 5657 5656 5655 5656 5657 5659 5660 5662 5664 5665 5665 5664 5664 5662 5660 5656 5652 5648 5643 5638 5633 5628
5555 5543 5531 5539 5552 5556 5550 5548 5552 5546 5541 5545 5551 5587 5619 5629 5639 5645 5651 5652 5650 5648 5646 5644 5643 5643 5645 5646 5648 5650 5651 5652 5653 5653 5653 5652 5650 5647 5643 5639 5634 5629 5623 5618
5543 5531 5518 5533 5549 5556 5557 5557 5556 5553 5542 5548 5559 5588 5624 5621 5625 5630 5634 5637 5638 5638 5636 5633 5632 5631 5632 5634 5636 5637 5639 5640 5640 5640 5640 5639 5638 5635 5632 5628 5623 5618 5612 5607
5541 5529 5509 5513 5529 5538 5546 5553 5562 5563 5545 5532 5545 5586 5616 5612 5616 5619 5622 5624 5624 5624 5622 5620 5619 5620 5621 5622 5624 5625 5626 5627 5627 5627 5626 5625 5624 5622 5619 5615 5610 5605 5600 5594
5544 5532 5533 5534 5550 5544 5539 5546 5551 5547 5537 5538 5556 5585 5604 5610 5612 5615 5616 5616 5613 5612 5610 5608 5608 5609 5610 5611 5612 5613 5613 5614 5614 5613 5613 5611 5610 5608 5604 5600 5596 5592 5587 5581
5537 5529 5533 5545 5547 5548 5547 5546 5547 5551 5556 5558 5575 5585 5606 5609 5609 5611 5610 5609 5606 5604 5602 5600 5600 5599 5599 5600 5601 5601 5601 5601 5601 5600 5599 5597 5594 5592 5589 5585 5581 5576 5572 5567
5530 5526 5521 5523 5527 5537 5538 5541 5545 5552 5561 5564 5572 5585 5612 5606 5600 5599 5600 5599 5598 5599 5598 5596 5594 5593 5592 5593 5592 5591 5590 5589 5588 5587 5585 5582 5579 5576 5573 5569 5565 5561 5556 5550
5517 5507 5504 5500 5504 5512 5513 5542 5548 5548 5556 5562 5568 5595 5598 5591 5592 5596 5595 5592 5594 5597 5596 5593 5592 5591 5590 5587 5586 5583 5580 5577 5575 5573 5570 5567 5564 5561 5557 5553 5549 5545 5540 5534
5516 5503 5490 5477 5486 5485 5538 5553 5552 5554 5562 5568 5576 5590 5593 5592 5591 5590 5590 5589 5590 5591 5590 5589 5588 5586 5583 5579 5575 5571 5568 5565 5562 5559 5556 5553 5551 5547 5542 5538 5534 5529 5524 5519
5517 5503 5475 5473 5481 5493 5526 5537 5549 5550 5556 5570 5573 5583 5581 5577 5573 5576 5582 5583 5588 5589 5588 5587 5584 5580 5574 5569 5565 5560 5556 5553 5551 5548 5544 5541 5538 5533 5528 5524 5519 5514 5509 5503
5497 5498 5479 5466 5474 5488 5551 5549 5541 5541 5544 5577 5572 5573 5565 5556 5557 5583 5584 5574 5576 5576 5576 5575 5571 5567 5564 5559 5554 5550 5546 5543 5541 5538 5533 5528 5524 5520 5515 5510 5504 5498 5493 5487
5472 5474 5479 5468 5476 5506 5541 5530 5534 5530 5564 5573 5563 5563 5554 5554 5570 5577 5569 5565 5565 5564 5563 5561 5558 5556 5553 5547 5543 5539 5536 5534 5530 5524 5518 5514 5509 5505 5500 5494 5488 5482 5476 5470
5487 5477 5475 5469 5473 5510 5523 5518 5537 5553 5556 5552 5554 5555 5550 5553 5555 5553 5550 5549 5548 5547 5547 5545 5543 5541 5537 5534 5532 5529 5525 5521 5513 5508 5503 5498 5493 5489 5484 5478 5472 5466 5460 5453
5495 5506 5501 5502 5517 5522 5514 5526 5537 5538 5541 5540 5538 5540 5540 5538 5536 5534 5532 5530 5530 5530 5529 5528 5527 5524 5520 5518 5518 5516 5510 5502 5497 5492 5486 5481 5476 5472 5467 5463 5456 5449 5444 5438
5479 5489 5486 5490 5498 5503 5503 5511 5517 5520 5525 5525 5525 5525 5525 5525 5523 5519 5515 5513 5511 5510 5510 5509 5508 5507 5503 5500 5499 5497 5491 5486 5481 5475 5469 5464 5459 5454 5449 5446 5442 5437 5430 5424
5474 5476 5483 5487 5492 5490 5493 5497 5503 5503 5505 5507 5507 5508 5509 5510 5508 5505 5501 5498 5495 5494 5492 5491 5491 5490 5486 5482 5479 5476 5473 5469 5464 5458 5453 5448 5444 5439 5433 5429 5425 5422 5418 5414
5459 5472 5487 5495 5490 5488 5492 5492 5490 5490 5491 5491 5492 5491 5491 5491 5491 5489 5485 5481 5479 5476 5475 5474 5473 5470 5467 5464 5460 5457 5455 5453 5449 5443 5437 5433 5428 5423 5418 5412 5406 5404 5400 5397